This is the latest recevied weather packets stored in our database for station/object KA3BQE-13. If no packets are shown the sender has not sent any weather packets the latest 10 day(s).
| Time | Temp. | Humidity | Pressure | Rain* | Wind** | Luminosity | Snow |
|---|---|---|---|---|---|---|---|
| 1778032186 | 8.89° C | 91% | 1011.7 hPa | 0 mm | - | 0 W/m² | - |
| 1778031883 | 8.89° C | 90% | 1011.7 hPa | 0 mm | - | 0 W/m² | - |
| 1778031579 | 8.89° C | 90% | 1011.5 hPa | 0 mm | - | 0 W/m² | - |
| 1778031277 | 8.89° C | 90% | 1011.4 hPa | 0 mm | - | 0 W/m² | - |
| 1778030973 | 8.89° C | 90% | 1011.3 hPa | 0 mm | - | 0 W/m² | - |
| 1778030670 | 8.89° C | 89% | 1011.3 hPa | 0 mm | - | 0 W/m² | - |
| 1778030367 | 8.89° C | 87% | 1011.3 hPa | 0 mm | - | 0 W/m² | - |
| 1778030064 | 8.89° C | 86% | 1010.9 hPa | 0 mm | - | 0 W/m² | - |
| 1778029761 | 8.89° C | 86% | 1010.8 hPa | 0 mm | - | 0 W/m² | - |
| 1778029460 | 9.44° C | 85% | 1011.1 hPa | 0 mm | - | 0 W/m² | - |
| 1778029156 | 9.44° C | 85% | 1011 hPa | 0 mm | - | 1 W/m² | - |
| 1778028854 | 9.44° C | 80% | 1010.8 hPa | 0 mm | - | 1 W/m² | - |
| 1778028548 | 9.44° C | 75% | 1010.9 hPa | 0 mm | - | 2 W/m² | - |
| 1778028247 | 9.44° C | 73% | 1010.6 hPa | 0 mm | - | 3 W/m² | - |
| 1778027942 | 9.44° C | 77% | 1010.6 hPa | 0 mm | - | 4 W/m² | - |
| 1778027639 | 9.44° C | 79% | 1010.7 hPa | 0 mm | - | 5 W/m² | - |
| 1778027335 | 9.44° C | 80% | 1010.8 hPa | 0 mm | - | 6 W/m² | - |
| 1778027032 | 10° C | 80% | 1010.4 hPa | 0 mm | - | 7 W/m² | - |
| 1778026727 | 10° C | 81% | 1010.4 hPa | 0 mm | - | 10 W/m² | - |
| 1778026424 | 9.44° C | 85% | 1010.5 hPa | 0 mm | - | 12 W/m² | - |
| 1778026122 | 10° C | 86% | 1010.7 hPa | 0 mm | - | 13 W/m² | - |
| 1778025819 | 10° C | 85% | 1010.5 hPa | 0 mm | - | 21 W/m² | - |
| 1778025516 | 10° C | 85% | 1010.7 hPa | 0 mm | - | 21 W/m² | - |
| 1778025213 | 10° C | 83% | 1010.6 hPa | 0 mm | - | 27 W/m² | - |
| 1778024910 | 10° C | 81% | 1010.7 hPa | 0 mm | - | 28 W/m² | - |
* Rain latest hour (hover to see other rain measurements)
** Current wind speed in m/s (hover to see current wind gust speed)